Location: Moscow
(55.7500°N, 37.5830°E)
Time: 07:33:53
(UTC+03:00)

Vanguard 1 - Visible Passes

Search period start: 13 July 2024 00:00
Search period end: 23 July 2024 00:00
Orbit: 650 x 3826 km, 34.3° (Epoch: 12 July)

Date Brightness Start Highest point End Pass type
(mag) Time Alt. Az. Time Alt. Az. Time Alt. Az.
15 Jul 14.1 02:32:24 10° SE 02:33:27 10° SE 02:34:29 10° SE visible
16 Jul 14.0 02:42:44 10° SSE 02:52:32 14° SE 03:01:53 10° ESE visible
17 Jul 13.9 02:58:33 10° S 03:11:41 19° SE 03:24:05 10° ESE visible
18 Jul 13.8 03:15:39 10° S 03:30:56 23° SE 03:45:14 10° ESE visible
19 Jul 14.0 01:28:21 10° SE 01:29:53 10° SE 01:31:26 10° ESE visible
20 Jul 13.8 01:39:13 10° SSE 01:48:47 14° SE 01:58:30 10° ESE visible
21 Jul 13.7 01:55:09 10° S 02:07:46 19° SE 02:20:46 10° E visible
22 Jul 13.6 02:12:19 10° S 02:26:51 23° SE 02:41:59 10° E visible
